FW1093 Weather Reports


time (UTC)temp
F
wind
direction
speed
knots
gust
knots
rain 1hr
in
rain 24hr
in
rain mn
in
humidity
%
barometer
mb
20260503203320 55 338 2.6 6.1 0.00 0.00 0.00 35 1009.8
20260503202343 55 325 2.6 6.1 0.00 0.00 0.00 35 1009.8
20260503201315 55 359 1.7 7.0 0.00 0.00 0.00 39 1009.7
20260503200351 55 232 2.6 5.2 0.00 0.00 0.00 36 1009.8
20260503195320 56 10 0.9 5.2 0.00 0.00 0.00 38 1009.8
20260503194321 55 310 1.7 8.7 0.00 0.00 0.00 39 1009.8
20260503193341 53 319 1.7 7.0 0.00 0.00 0.00 37 1009.9
20260503192314 53 360 1.7 5.2 0.00 0.00 0.00 40 1010.0
20260503191333 53 339 1.7 5.2 0.00 0.00 0.00 39 1009.9
20260503190329 54 274 1.7 5.2 0.00 0.00 0.00 38 1009.8
20260503185319 54 338 3.5 7.0 0.00 0.00 0.00 37 1010.2
20260503184339 54 18 2.6 7.0 0.00 0.00 0.00 37 1010.0
20260503183327 54 189 2.6 5.2 0.00 0.00 0.00 38 1009.9
20260503182322 55 241 2.6 7.0 0.00 0.00 0.00 38 1009.9
20260503181314 53 199 1.7 12.2 0.00 0.00 0.00 37 1009.8
20260503180334 54 94 1.7 5.2 0.00 0.00 0.00 40 1009.9
20260503175326 53 360 1.7 7.0 0.00 0.00 0.00 38 1009.9
20260503174317 52 41 0.9 5.2 0.00 0.00 0.00 41 1009.9
20260503173337 52 251 1.7 5.2 0.00 0.00 0.00 38 1010.0
20260503172330 53 10 1.7 4.3 0.00 0.00 0.00 42 1010.0
20260503171346 51 274 1.7 6.1 0.00 0.00 0.00 46 1010.0
20260503170317 50 8 0.9 7.0 0.00 0.00 0.00 46 1010.0
20260503150328 48 238 1.7 10.4 0.00 0.00 0.00 55 1010.4
20260503131323 45 333 1.7 8.7 0.00 0.00 0.00 62 1010.3
20260503130346 44 293 2.6 9.6 0.00 0.00 0.00 62 1010.4
20260503110315 39 283 0.0 1.7 0.00 0.02 0.00 73 1010.1
20260503090323 40 321 0.0 5.2 0.00 0.03 0.00 68 1009.8
20260503081328 40 347 0.0 2.6 0.00 0.05 0.00 66 1010.1
20260503080339 41 335 0.0 2.6 0.00 0.05 0.00 67 1010.1
20260503072345 42 217 0.0 0.9 0.00 0.05 0.00 64 1010.3
20260503071317 42 282 0.0 1.7 0.00 0.05 0.00 64 1010.3
20260503070338 43 326 0.0 4.3 0.00 0.05 0.00 63 1010.4
20260503060329 44 285 0.0 4.3 0.00 0.05 0.00 60 1010.6
20260503054316 44 253 0.0 2.6 0.00 0.05 0.00 58 1011.0
20260503053334 44 274 0.9 4.3 0.00 0.05 0.00 59 1011.1
20260503052328 44 282 0.0 2.6 0.00 0.05 0.00 63 1011.0
20260503051322 44 249 0.0 0.9 0.00 0.05 0.00 60 1011.3
20260503050331 44 299 0.0 1.7 0.00 0.05 0.00 64 1011.3
20260503045323 44 248 0.0 0.9 0.00 0.05 0.00 63 1011.3
20260503044343 44 314 0.0 2.6 0.00 0.05 0.00 60 1011.5
20260503043314 45 229 0.0 0.9 0.00 0.05 0.00 62 1011.4
20260503042334 45 263 0.0 0.9 0.00 0.05 0.00 63 1011.4
20260503041329 45 182 0.0 0.9 0.00 0.05 0.00 64 1011.4
20260503040323 45 293 0.0 2.6 0.00 0.05 0.00 62 1011.5
20260503035336 45 267 0.0 1.7 0.00 0.05 0.05 64 1011.4
20260503034328 44 274 0.0 1.7 0.00 0.05 0.05 68 1011.3
20260503033323 44 260 0.0 0.0 0.00 0.05 0.05 69 1011.3
20260503032314 44 254 0.0 0.0 0.00 0.05 0.05 70 1011.4
20260503031326 44 254 0.0 0.0 0.00 0.05 0.05 74 1011.4
20260503030322 44 254 0.0 0.0 0.00 0.05 0.05 72 1011.3
20260503025314 44 254 0.0 0.0 0.00 0.05 0.05 71 1011.4
20260503024336 44 254 0.0 0.0 0.00 0.05 0.05 70 1011.5
20260503023330 45 254 0.0 0.0 0.00 0.05 0.05 70 1011.7
20260503022323 45 254 0.0 0.0 0.00 0.05 0.05 69 1011.6
20260503021318 45 254 0.0 0.0 0.00 0.05 0.05 65 1011.7
20260503020314 45 254 0.0 0.0 0.00 0.05 0.05 64 1011.7
20260503015350 46 254 0.0 0.0 0.00 0.05 0.05 62 1011.7
20260503014350 46 254 0.0 0.0 0.00 0.05 0.05 62 1011.6
20260503013323 46 254 0.0 0.0 0.00 0.05 0.05 65 1011.6
20260503012318 45 254 0.0 0.0 0.00 0.05 0.05 66 1011.4
20260503011335 46 255 0.0 0.0 0.00 0.05 0.05 67 1011.5
20260503010338 46 255 0.0 0.0 0.00 0.05 0.05 66 1011.5
20260503005316 47 244 0.0 0.0 0.00 0.05 0.05 65 1011.4
20260503004337 47 245 0.0 1.7 0.00 0.05 0.05 66 1011.3
20260503003334 47 234 0.0 0.0 0.00 0.05 0.05 71 1011.1
20260503002328 47 288 0.0 0.0 0.00 0.05 0.05 69 1010.9
20260503001321 48 288 0.0 0.0 0.00 0.05 0.05 69 1010.8
20260503000315 49 288 0.0 0.0 0.00 0.05 0.05 69 1010.8
20260502235335 50 288 0.0 0.0 0.00 0.05 0.05 67 1010.6
20260502234334 51 288 0.0 0.0 0.00 0.05 0.05 63 1010.6
20260502233333 52 288 0.0 0.0 0.00 0.05 0.05 61 1010.5
20260502232352 53 288 0.0 0.0 0.00 0.05 0.05 58 1010.5
20260502231353 55 288 0.0 2.6 0.00 0.05 0.05 50 1010.4
20260502230324 55 305 0.0 4.3 0.00 0.05 0.05 49 1010.3
20260502224349 57 274 0.9 3.5 0.00 0.05 0.05 49 1010.3
20260502223326 57 265 0.9 5.2 0.00 0.05 0.05 50 1010.2
20260502222320 58 280 0.9 3.5 0.00 0.05 0.05 52 1010.2
20260502221338 57 353 0.9 2.6 0.00 0.05 0.05 50 1010.1
20260502220336 57 280 0.0 2.6 0.00 0.05 0.05 52 1010.0
20260502215335 58 69 0.9 4.3 0.00 0.05 0.05 48 1009.9
20260502214331 60 345 0.9 4.3 0.00 0.05 0.05 44 1009.8
20260502213349 61 186 0.0 2.6 0.00 0.05 0.05 44 1009.8
20260502212348 60 302 0.9 2.6 0.00 0.05 0.05 45 1009.8
20260502211323 59 337 0.0 2.6 0.00 0.05 0.05 45 1009.7
20260502210342 60 292 0.0 2.6 0.00 0.05 0.05 46 1009.7
20260502205315 59 260 0.0 3.5 0.00 0.05 0.05 44 1009.9
20260502204325 60 287 1.7 2.6 0.00 0.05 0.05 45 1010.1